Darby, MT

3:25 AM MDT on May 27, 2017 (GMT -0600)
MDEEM8 | | Change Station

Elev 6481 ft 46.03 °N, 114.06 °W | Updated 11 days ago

Partly Cloudy
Partly Cloudy
28.0 °F
Feels Like 22 °F
N
5.0
Wind Variable Wind from North
Gusts 8.0 mph

Today
High -- | Low -- °F
--% Chance of Precip.
Yesterday
High -- | Low -- °F
Precip. -- in
Pressure 30.07 in
Visibility 10.0 miles
Clouds Few 10000 ft
Windchill 22 °F
Dew Point 20.0 °F
Humidity 72%
Rainfall in
Snow Depth Not available.
5:52 AM 9:15 PM
Waxing Crescent, 4% visible
METAR KMSO 270853Z AUTO 27004KT 10SM FEW100 08/06 A3008 RMK AO2 SLP183 T00830061 51016 $
Pressure 30.07 in
Visibility 10.0 miles
Clouds Few 10000 ft
Windchill 22 °F
Dew Point 20.0 °F
Humidity 72%
Rainfall in
Snow Depth Not available.
5:52 AM 9:15 PM
Waxing Crescent, 4% visible
METAR KMSO 270853Z AUTO 27004KT 10SM FEW100 08/06 A3008 RMK AO2 SLP183 T00830061 51016 $

Get Severe Weather Alerts

Thanks for signing up!

Be on the lookout for a verification email in your inbox.

You'll start receiving the daily forecast at 6 AM.

×

10-Day Weather Forecast

Almanac

Astronomy

May. 27, 2017 Rise Set
Actual Time
Civil Twilight
Nautical Twilight
Astronomical Twilight
Moon
Length of Visible Light
Length of Day
Tomorrow will be .
, % of the Moon is Illuminated

Today's Extremes

State Highs State Lows

Community

WunderPhotos

Category 6

Welcome to Category 6. This is the collective home for Weather Underground's featured writeups by Dr. Jeff Masters (right), Bob Henson (left), Chris Burt, and other regular contributors.

Nearby

Air Quality

  Air Quality AQ Index Pollutant
Not available.

Snow Depth

Station Depth Elevation

Earthquake Activity

City Distance Mag. Time & Date
Minimum magnitude displayed is 2.5.

Coastal Water Temperatures

Place Temperature

Stations

Nearby Weather Stations

Station Location Temp. Windchill Dew Point Humidity Wind Precip. Elev Updated Type
                   

Watches & Warnings

There are currently no watches in effect.